Regional Weather Roundup
Issued by NWS

Home | Current Version | Previous Version | Graphics & Text | Print | Product List | Glossary On
Versions: 1 2 3 4 5 6 7 8 9 10 11 12 13 14 15 16 17 18 19 20 21 22 23 24 25 26 27 28 29 30 31 32 33 34 35 36 37 38 39 40 41 42 43 44 45 46 47 48 49 50
000
ASUS45 KABQ 271510
RWRNM
NEW MEXICO REGIONAL WEATHER ROUNDUP
NATIONAL WEATHER SERVICE ALBUQUERQUE NM
900 AM MDT WED MAY 27 2015

NOTE: "FAIR" MEANS FEW OR NO CLOUDS BELOW 12,000 FEET AGL WITH NO
       SIGNIFICANT WEATHER OR OBSTRUCTIONS TO VISION.

      THIS PRODUCT IS RELEASED AS TWO VERSIONS.  ONE VERSION NEAR
      THE TOP OF THE HOUR CONTAINING PRELIMINARY DATA FROM ALBUQUERQUE
      AND OTHER STATIONS.  A FINAL VERSION WITH ADDITIONAL DATA IS
      ISSUED ABOUT 10 MINUTES AFTER THE HOUR.

NMZ501-503-504-510>518-271600-
NORTHWEST PLATEAU/NORTHCENTRAL MOUNTAINS

CITY           SKY/WX    TMP DP  RH WIND       PRES   REMARKS
FARMINGTON     SUNNY     61  43  51 E10       30.16R
LOS ALAMOS     MOSUNNY   57  38  47 N5        30.27S
SANTA FE       PTSUNNY   61  42  49 N12       30.21R
TAOS           MOSUNNY   57  37  47 CALM      30.26F
ANGEL FIRE     FAIR      49  38  64 CALM      30.33S

$$
NMZ402-403-502-505>509-271600-
WESTCENTRAL MOUNTAINS/SOUTHWEST MOUNTAINS

CITY           SKY/WX    TMP DP  RH WIND       PRES   REMARKS
GALLUP         MOSUNNY   55  36  48 CALM      30.22R
GRANTS         PTSUNNY   57  34  41 SE7       30.25R
SILVER CITY      N/A     72  23  16 CALM      30.18R

$$
NMZ407-409-411-412-271600-
SOUTHERN DESERTS

CITY           SKY/WX    TMP DP  RH WIND       PRES   REMARKS
LORDSBURG      FAIR      64  27  24 CALM      30.10S
DEMING         CLOUDY    67  26  21 CALM      30.11R
LAS CRUCES     MOSUNNY   74  22  14 CALM      30.12S
HOLLOMAN AFB   SUNNY     73  30  20 W2        30.09R
ALAMOGORDO     SUNNY     72  30  21 NW5       30.11R
T OR C         MOSUNNY   71  32  23 NE6       30.13R

$$
NMZ519>523-271600-
CENTRAL VALLEYS/CENTRAL HIGHLANDS

CITY           SKY/WX    TMP DP  RH WIND       PRES   REMARKS
ALBUQUERQUE    MOSUNNY   63  45  51 CALM      30.18R
DOUBLE EAGLE   PTSUNNY   63  43  48 NE12      30.21R
MORIARTY ARPT  FAIR      60  43  51 CALM      30.23S
CLINES CORNERS MOSUNNY   63  38  39 SE10      30.24R
BELEN          FAIR      64  47  54 CALM      30.18R
SOCORRO        FAIR      64  39  39 NW3       30.16R

$$
NMZ524>526-539-540-271600-
SOUTHCENTRAL MOUNTAINS

CITY           SKY/WX    TMP DP  RH WIND       PRES   REMARKS
RUIDOSO        PTSUNNY   64  28  25 SW9       30.28R

$$
NMZ527>531-271600-
NORTHEAST HIGHLANDS/NORTHEAST PLAINS

CITY           SKY/WX    TMP DP  RH WIND       PRES   REMARKS
LAS VEGAS      MOSUNNY   61  39  44 CALM      30.25R
RATON          PTSUNNY   59  48  67 NE5       30.21S
CLAYTON        SUNNY     66  55  67 S12       30.15S

$$
NMZ532>537-271600-
EASTCENTRAL PLAINS

CITY           SKY/WX    TMP DP  RH WIND       PRES   REMARKS
TUCUMCARI      SUNNY     71  53  52 CALM      30.10R
CANNON AFB     SUNNY     71  59  66 S7        30.13R
CLOVIS AIRPORT SUNNY     68  57  68 S7          N/A

$$
NMZ028-029-538-271600-
SOUTHEAST PLAINS

CITY           SKY/WX    TMP DP  RH WIND       PRES   REMARKS
ROSWELL        SUNNY     71  51  49 VRB3      30.09R
ARTESIA        SUNNY     68  63  83 SE7       30.10S
CARLSBAD       SUNNY     73  62  68 SE8       30.08R
HOBBS          PTSUNNY   70  68  94 SE15      30.13R


$$


USA.gov is the U.S. government's official web portal to all federal, state and local government web resources and services.